Weather Service Report


611 
ASUS44 KFWD 210315
RWRTX 
NORTH TEXAS HOURLY WEATHER ROUNDUP
NATIONAL WEATHER SERVICE FORT WORTH TX
1000 PM CDT MON OCT 20 2014

NOTE: "FAIR" INDICATES FEW OR NO CLOUDS BELOW 12,000 FEET WITH NO
SIGNIFICANT WEATHER AND/OR OBSTRUCTIONS TO VISIBILITY.

TXZ118-119-210400-
DALLAS/FORT WORTH METROPLEX
  
CITY           SKY/WX    TMP DP  RH WIND       PRES   REMARKS
DFW AIRPORT    PTCLDY    69  59  70 SE6       30.04R                  
DALLAS LOVE    MOCLDY    72  60  66 SE7       30.05R                  
FTW MEACHAM    CLEAR     71  60  68 SE7       30.04R                  
DAL-EXECUTIVE  CLEAR     67  60  78 SE5       30.05R                  
FTW-ALLIANCE   PTCLDY    67  59  75 S6        30.04R                  
FTW-NAS-JRB    CLEAR     74  58  57 SE5       30.09R                  
FTW-SPINKS     CLEAR     66  58  76 SE5       30.07R                  
ARLINGTON      CLEAR     69  59  70 SE3       30.05R                  
GRAND PRAIRIE  CLEAR     70  61  73 SE3       30.06R                  
ADDISON        CLEAR     72  59  64 SE8       30.05R                  
MESQUITE       CLEAR     65  59  81 SE3       30.05                   
LANCASTER      CLEAR     64  57  78 CALM      30.06R                  
$$

TXZ091>094-102>105-117-120-121-131>134-210400-
NORTH CENTRAL TEXAS
  
CITY           SKY/WX    TMP DP  RH WIND       PRES   REMARKS
SHRMAN/DENISON CLEAR     71  63  76 SE8       30.05S                  
GAINESVILLE    CLEAR     66  59  78 MISG      30.07R                  
BOWIE          CLEAR     66  60  83 SE5       30.05S                  
BRIDGEPORT     CLEAR     69  59  72 SE5       30.07R                  
DECATUR        CLEAR     69  58  68 SE5       30.06R                  
DENTON         CLEAR     67  60  78 S5        30.04R                  
MCKINNEY       CLEAR     66  60  81 S5        30.05R                  
GREENVILLE     CLEAR     63  59  88 E3        30.06R                  
ROCKWALL       CLEAR     68  60  76 S7        30.05R                  
TERRELL        CLEAR     67  60  78 CALM      30.06R                  
WAXAHACHIE     CLEAR     67  60  76 CALM      30.06R                  
CLEBURNE       CLEAR     70  61  73 SE8       30.07R                  
GRANBURY       CLEAR     70  58  66 SE5       30.06R                  
$$

TXZ083>090-098>101-113>116-127>130-139>142-154-155-210400-
WESTERN NORTH TEXAS
  
CITY           SKY/WX    TMP DP  RH WIND       PRES   REMARKS
WICHITA FALLS  CLEAR     67  59  75 S9        30.03R                  
WF-KICKAPOO    CLEAR     68  58  70 SE6       30.05R                  
VERNON         CLEAR     70  55  60 S7        30.05R                  
ABILENE        PTCLDY    66  53  63 SE6       30.07R                  
ABILENE-DYESS  PTCLDY    65  53  65 S5        30.06R                  
BRECKENRIDGE   CLEAR     69  56  61 SE7       30.05R                  
GRAHAM         CLEAR     69  59  69 SE5       30.03S                  
MINERAL WELLS  CLEAR     67  57  70 SE7       30.04R                  
STEPHENVILLE   PTCLDY    67  56  68 CALM      30.09R                  
COMANCHE       PTCLDY    66  59  76 SE5       30.07R                  
BROWNWOOD      MOCLDY    66  57  72 SE5       30.07R                  
COLEMAN        CLEAR     67  56  67 CALM      30.07R                  
BRADY          CLEAR     66  54  63 E5        30.07R                  
$$

TXZ143>147-156>162-174-175-210400-
CENTRAL TEXAS
  
CITY           SKY/WX    TMP DP  RH WIND       PRES   REMARKS
WACO           PTCLDY    67  59  75 SE5       30.05R                  
WACO-TSTC      CLEAR     64  59  82 CALM      30.05                   
WACO-MCGREGOR  CLEAR     66  55  68 CALM      30.06R                  
HILLSBORO      CLEAR     70  58  66 E7        30.05R                  
CORSICANA      CLEAR     68  59  73 SE3       30.06R                  
MEXIA          CLEAR     65  60  82 CALM      30.05R                  
HEARNE         PTCLDY    67  61  79 NE3       30.05R                  
CAMERON        PTCLDY    68  61  77 CALM      30.05R                  
TEMPLE         PTCLDY    66  55  68 E5        30.05R                  
KILLEEN        PTCLDY    72  59  64 E7        30.05R                  
KILLEEN-SKYLRK CLEAR     70  55  60 SE6       30.03F                  
FORT HOOD      CLEAR     70  59  68 CALM      30.05R                  
GATESVILLE     CLEAR     66  59  77 CALM      30.07R                  
HAMILTON       PTCLDY    69  57  65 SE10      30.07R                  
LAMPASAS       CLEAR     68  60  75 CALM      30.06R                  
$$

TXZ095>097-106>112-122>126-135>138-148>153-164>167-210400-
EAST TEXAS
  
CITY           SKY/WX    TMP DP  RH WIND       PRES   REMARKS
PARIS          CLEAR     64  54  68 S6        30.06R                  
SULPHUR SPRNGS   N/A     68  58  72 SE6       30.08R                  
MOUNT PLEASANT CLEAR     62  61  97 CALM      30.08R                  
MINEOLA        CLEAR     61  61 100 CALM      30.07R                  
TYLER          CLEAR     66  57  72 CALM      30.06R                  
LONGVIEW       CLEAR     61  56  83 CALM      30.06R                  
MARSHALL       CLEAR     60  57  90 CALM      30.08R                  
ATHENS         CLEAR     59  57  94 CALM      30.05R                  
PALESTINE      CLEAR     61  60  95 CALM      30.06R FOG              
JACKSONVILLE     N/A     67  54  63 CALM      30.08R HAZE             
HENDERSON      CLEAR     58  58  99 CALM      30.07R                  
NACOGDOCHES    CLEAR     57  54  88 CALM      30.06R                  
LUFKIN         CLEAR     61  55  81 CALM      30.05R                  
$$

SUPPLEMENTAL OBSERVATIONS (CENTRAL)
  
CITY           SKY/WX    TMP DP  RH WIND       PRES   REMARKS
LAKE TEXOMA      N/A     70  63  78 SE1         N/A                   
PAT MAYSE LAKE   N/A     68  59  73 SE5         N/A                   
ATHENS           N/A     61  57  88 CALM        N/A                   
PALESTINE        N/A     61  59  94 N1          N/A                   
LAKE LIMESTONE   N/A     64  59  82 SE1         N/A                   
MCGREGOR         N/A     66  55  68 E2          N/A                   
TEMPLE           N/A     70  57  64 E5          N/A                   
$$

SUPPLEMENTAL OBSERVATIONS (WEST)
  
CITY           SKY/WX    TMP DP  RH WIND       PRES   REMARKS
MILLERS CREEK    N/A     70  54  56 SE5         N/A                   
POSSUM KINGDOM   N/A     70  55  60 SE5         N/A                   
GRANBURY         N/A     70  55  60 SE6         N/A                   
COMANCHE         N/A     66  55  68 SE5         N/A                   
HAMBY            N/A     64  52  63 E5          N/A                   
IVIE RESERVOIR   N/A     66  54  63 SE5         N/A                   
COLORADO BEND    N/A     64  54  68 SE2         N/A                   
$$

SUPPLEMENTAL OBSERVATIONS (EAST)
  
CITY           SKY/WX    TMP DP  RH WIND       PRES   REMARKS
TEXARKANA        N/A     57  54  88 CALM        N/A                   
LINDEN           N/A     61  57  88 CALM        N/A                   
CADDO LAKE       N/A     55  54  94 CALM        N/A                   
LUFKIN           N/A     57  54  88 MISG        N/A                   
N SABINE NF      N/A     55  52  88 MISG        N/A                   
$$

SUPPLEMENTAL OBSERVATIONS ARE A COLLECTION OF AUTOMATED INSTRUMENTS
THAT ARE MAINTAINED BY A VARIETY OF FEDERAL AND STATE AGENCIES. 
CERTAIN ELEMENTS...SUCH AS HUMIDITY VALUES AND SUSTAINED WIND 
SPEEDS...MAY BE APPROXIMATED.


Return to Home page


Western Regional Climate Center, wrcc@dri.edu